SCP
0 -0 -0 0 0 0 0 0 0 0 0 0 0 0 0 -0 0 0 -0 -0 -0 -0 -0 -0 -0 -0 -0 -0 -0 -0 -0 -0 -0 -0 -0 -0 -0 -0 -0 -0 -0 -0 -0 -0 0 -0 -0 -0 0
0 0 0 0 0 0 0 0 0 0 0 0 0 0 0 0 0 0 0 0 -0 -0 -0 -0 -0 -0 -0 -0 -0 -0 -0 -0 -0 -0 0 -0 -0 -0 -0 -0 -0 -0 -0 -0 -0 -0 -0 0 0
0 0 0 0 0 0 0 0 0 0 0 0 0 0 0 0 0 0 0 0 0 0 -0 -0 -0 -0 -0 -0 -0 -0 -0 -0 -0 -0 0 0 0 0 0 0 0 0 0 0 0 0 0 0 0
0 0 0 0 0 0 0 0 0 0 0 0 0 0 0 0 0 0 0 0 0 0 0 0 0 0 0 0 0 -0 -0 -0 -0 0 0 0 0 0 0 0 0 0 0 0 0 0 0 0 0
0 0 0 0 0 0 0 0 0 0 0 0 0 0 0 0 0 0 0 0 0 0 0 0 0 0 0 0 0 0 0 -0 0 0 0 0 0 0 0 0 0 0 0 0 0 0 0 0 0
0 0 0 0 0 0 0 0 0 0 0 0 0 0 0 0 0 0 0 0 0 0 0 0 0 0 0 0 0 0 0 0 0 0 0 0 0 0 0 0 0 0 0 0 0 0 0 0 0
0 0 0 0 0 0 0 0 0 0 0 0 0 0 0 0 0 0 0 0 0 0 0 0 0 0 0 0 0 0 0 0 0 0 0 0 0 0 0 0 0 0 0 0 0 0 0 0 0
0 0 0 0 0 0 0 0 0 0 0 0 0 0 0 0 0 0 0 0 0 0 0 0 0 0 0 0 0 0 0 0 0 0 0 0 0 0 0 0 0 0 0 0 0 0 0 0 0
0 0 0 0 0 0 0 0 0 0 0 0 0 0 0 0 0 0 0 0 0 0 0 0 0 0 0 0 0 0 0 0 0 0 0 0 0 0 0 0 0 0 0 0 0 0 0 0 0
0 0 0 0 0 0 0 0 0 0 0 0 0 0 0 -0 -0 -0 0 0 0 0 0 0 0 0 0 0 0 0 0 0 0 0 0 0 0 0 0 0 0 0 0 0 0 0 0 0 0
0 0 0 0 0 0 0 0 0 0 0 0 0 0 0 0 0 -0 0 0 0 0 0 0 0 0 0 0 0 0 0 0 0 0 0 0 0 0 0 0 0 0 0 0 0 0 0 0 0
0 0 0 0 0 0 0 0 0 0 0 0 0 0 0 0 0 -0 0 0 0 0 0 0 0 0 0 0 0 0 0 0 0 0 0 0 0 0 0 0 0 0 0 0 0 0 0 0 0
0 0 0 0 0 0 0 0 0 0 0 0 0 0 0 0 0 0 0 0 0 0 0 0 0 0 0 0 0 0 0 0 0 0 0 0 0 0 0 0 0 0 0 0 0 0 0 0 0
0 0 0 0 0 0 0 0 0 0 0 0 0 0 0 0 0 0 0 0 0 0 0 0 0 0 0 0 0 0 0 0 0 0 0 0 0 0 0 0 0 0 0 0 0 0 0 0 0
0 0 0 0 0 0 0 0 0 0 0 0 0 0 0 0 0 0 0 0 0 0 0 0 0 0 0 0 0 0 0 0 0 0 0 0 0 0 0 0 0 0 0 0 0 0 -0 -0 -0
0 0 0 0 0 0 0 0 0 0 0 0 0 0 0 0 0 0 0 0 0 0 0 0 0 0 0 0 0 0 0 0 0 0 0 0 0 0 0 0 0 0 0 0 0 0 0 0 -0
0 0 0 0 0 0 0 0 0 0 0 0 0 0 0 0 0 0 0 0 0 0 0 0 0 0 0 0 0 0 0 0 0 0 0 0 0 0 0 0 0 0 0 0 0 0 0 0 0
0 0 0 0 0 0 0 0 0 0 0 0 0 0 0 0 0 0 0 0 0 0 0 0 0 0 0 0 0 0 0 0 0 0 0 0 0 0 0 0 0 0 0 0 0 0 0 0 0
0 0 0 0 0 0 0 0 0 0 0 0 0 0 0 0 0 0 0 0 0 0 0 0 0 0 0 0 0 0 0 0 0 0 0 0 0 0 0 0 0 0 0 0 0 0 0 0 0
0 0 0 0 0 0 0 0 0 0 0 0 0 0 0 0 0 0 0 0 0 0 0 0 0 0 0 0 0 0 0 0 0 0 0 0 0 0 0 0 0 0 0 0 0 0 0 0 0
0 0 0 0 0 0 0 0 0 0 0 0 0 0 0 0 0 0 0 0 0 0 0 0 0 0 0 0 0 0 0 0 0 0 0 0 0 0 0 0 0 0 0 0 0 0 0 0 0
0 0 0 0 0 0 0 -0 0 0 0 0 0 0 0 0 0 0 0 0 0 0 0 0 0 0 0 0 0 0 0 0 0 0 0 0 0 0 0 0 0 0 0 0 0 0 0 0 0
0 0 0 0 0 0 0 0 -0 0 0 0 0 0 0 0 0 0 0 0 0 0 0 0 0 0 0 0 0 0 0 0 0 0 0 0 0 0 0 0 0 0 0 0 0 0 0 0 0
0 0 0 0 0 0 0 0 0 0 0 0 0 0 0 0 0 0 0 0 0 0 0 0 0 0 0 0 0 0 0 0 0 0 0 0 0 0 0 0 0 0 0 0 0 0 0 0 0
0 0 0 0 0 0 0 0 0 0 0 0 0 0 0 0 0 0 0 0 0 0 0 0 0 0 0 0 0 0 0 0 0 0 0 0 0 0 0 0 0 0 0 0 0 0 0 0 0
0 0 0 0 0 0 0 0 0 0 0 0 0 0 0 0 0 0 0 0 0 0 0 0 0 0 0 0 0 0 0 0 0 0 0 0 0 0 0 0 0 0 0 0 0 0 0 0 0
0 0 0 0 0 0 0 0 0 0 0 0 0 0 0 0 0 0 0 0 0 0 0 0 0 0 0 0 0 0 0 0 0 0 0 0 0 0 0 0 0 0 0 0 0 0 0 0 0
0 0 0 0 0 0 -0 0 0 0 0 0 0 0 0 0 0 0 0 0 0 0 0 0 0 0 0 0 0 0 0 0 0 0 0 0 0 0 0 0 0 0 0 0 0 0 0 0 0
0 0 0 0 0 0 0 0 0 0 0 0 0 0 0 0 0 0 0 0 0 0 0 0 0 0 0 0 0 0 0 0 0 0 0 0 0 0 0 0 0 0 0 0 0 0 0 0 0
0 0 0 0 0 0 0 0 0 0 0 0 0 0 0 0 0 0 0 0 0 0 0 0 0 0 0 0 0 0 0 0 0 0 0 0 0 0 0 0 0 0 0 0 0 0 0 0 0
Wind_Speed_500mb
9 9 7 4 11 10 8 8 2 13 11 8 8 12 10 8 3 3 12 27 22 13 7 6 6 6 7 7 10 13 17 17 16 16 17 17 18 20 21 23 23 24 25 26 27 27 27 28 29
8 7 3 8 12 15 4 12 15 15 11 17 12 6 8 7 5 7 15 29 23 18 13 8 5 8 10 10 13 15 15 18 19 20 22 23 25 25 25 27 28 27 29 30 30 31 33 34 34
12 9 10 7 10 14 10 10 13 18 18 19 12 10 5 1 7 17 24 28 21 17 14 5 4 4 5 7 11 13 16 20 22 23 27 30 31 29 31 32 33 32 33 34 36 38 38 38 37
2 6 12 12 21 8 8 9 12 21 13 11 6 9 3 16 13 15 29 27 23 16 9 8 7 3 3 5 7 8 11 15 18 18 22 21 23 24 25 28 31 34 37 40 41 42 42 41 41
5 11 14 14 16 6 3 2 16 21 15 16 15 3 4 12 23 20 31 27 22 20 18 14 9 6 7 8 9 10 12 13 15 18 21 23 24 25 26 28 31 32 33 35 42 47 48 46 43
14 10 13 17 5 1 5 11 18 22 16 12 14 16 8 19 26 27 32 31 28 25 22 17 14 13 12 11 11 13 14 14 14 14 15 14 16 18 20 22 25 27 29 33 38 41 44 47 48
16 13 21 17 17 11 12 16 24 23 24 21 6 11 5 22 27 33 35 35 33 31 27 23 22 20 16 13 14 15 13 12 9 9 10 13 17 21 24 28 31 32 33 32 33 34 38 42 46
9 8 18 12 10 12 11 19 9 25 25 18 15 11 18 27 34 37 40 39 39 37 34 32 28 23 18 17 17 14 14 13 11 11 12 14 16 19 22 26 28 32 36 38 39 38 36 36 38
5 10 15 11 11 2 9 20 10 12 20 14 20 20 18 21 33 40 43 43 44 44 41 36 30 26 24 23 20 19 18 14 11 9 10 12 15 19 24 28 30 32 33 33 35 38 39 38 37
12 13 13 3 8 9 12 22 18 13 26 35 33 32 37 33 37 44 49 49 51 50 47 42 37 33 31 28 25 23 20 16 13 12 11 12 13 16 21 25 29 32 33 34 35 33 33 34 35
8 12 8 13 15 12 16 19 22 21 29 34 39 40 43 42 44 48 51 51 51 49 51 49 45 41 38 34 30 26 23 20 18 16 13 12 13 17 22 26 31 34 35 34 34 34 35 35 37
11 25 18 5 9 9 19 14 18 42 49 12 18 28 44 47 53 55 55 53 50 50 54 53 51 47 43 38 34 31 28 24 21 16 14 15 16 18 23 27 30 33 35 36 36 36 36 37 38
19 21 15 20 14 21 18 30 25 42 44 42 33 39 38 46 52 53 52 50 51 54 56 57 56 52 47 42 39 36 31 27 22 19 18 17 17 19 22 26 32 37 39 40 40 40 39 39 39
8 20 28 20 28 23 19 31 10 29 32 48 45 41 42 49 52 50 55 58 60 61 59 58 58 53 49 45 40 37 32 27 24 22 20 18 18 20 23 28 35 41 45 45 46 47 48 48 50
12 18 26 35 30 14 17 20 36 55 29 29 39 45 45 52 50 60 59 63 64 65 61 63 60 56 52 48 44 41 35 31 29 27 23 20 20 22 25 30 36 41 45 48 49 51 54 56 57
12 12 22 3 23 12 18 39 25 26 27 35 42 46 48 55 62 59 59 62 63 63 65 63 62 61 57 52 47 43 39 37 35 29 25 23 22 24 27 31 35 41 46 48 50 52 55 59 63
20 23 31 32 32 9 26 30 16 10 23 41 49 51 55 55 56 58 61 64 64 65 63 68 67 65 59 55 51 47 45 42 37 30 25 25 26 27 29 33 37 41 44 47 48 51 56 61 65
32 35 33 33 18 27 28 42 42 52 50 59 63 63 64 65 60 55 57 61 61 64 65 68 69 66 63 60 55 53 51 46 39 33 30 31 30 30 31 35 39 43 46 48 51 53 55 60 63
43 42 45 48 20 19 38 44 45 55 59 60 68 68 65 63 53 51 58 64 66 65 69 69 71 70 68 66 62 58 54 48 42 39 37 36 36 34 33 36 41 45 46 46 49 52 54 56 61
39 42 51 44 24 13 33 45 41 43 58 67 67 67 51 45 42 46 55 66 72 72 77 75 72 71 72 68 64 59 53 51 47 47 45 43 39 36 35 37 42 46 46 46 47 50 55 55 49
37 41 42 42 30 24 27 37 32 30 40 52 67 63 46 43 40 46 57 67 72 77 78 79 76 75 75 71 67 64 57 53 51 52 50 46 41 37 38 40 43 46 45 45 47 49 50 50 49
39 30 37 39 22 29 3 31 29 29 33 26 55 62 46 35 42 45 58 68 70 71 73 75 76 79 78 76 76 69 63 60 56 55 55 49 43 40 41 41 43 44 45 44 47 50 54 56 55
23 5 10 19 28 34 31 27 31 13 19 24 36 57 40 32 40 49 60 58 57 62 67 72 74 81 83 84 80 76 71 64 59 60 54 49 44 45 44 42 42 47 47 44 49 54 56 57 54
11 6 8 10 12 24 38 36 19 14 13 15 25 42 28 21 31 36 44 49 52 58 65 71 73 80 85 87 84 81 76 72 70 65 59 51 50 47 45 42 45 48 48 49 54 58 61 63 63
17 13 12 18 14 33 27 26 36 18 22 28 42 50 14 21 30 39 45 49 52 58 63 69 68 74 83 89 89 87 82 76 71 65 59 56 52 45 43 45 48 50 51 55 59 62 65 67 69
28 23 12 25 31 48 6 27 23 30 33 43 45 30 23 28 36 41 47 46 50 56 60 62 68 72 80 89 93 88 84 80 74 68 62 57 50 44 46 48 48 50 55 59 63 67 69 68 70
17 15 8 18 2 18 33 50 36 13 22 24 21 23 37 36 42 46 46 49 53 54 58 60 68 74 81 88 91 92 88 81 75 68 61 53 48 46 48 47 48 52 55 61 64 66 67 66 69
11 3 10 10 13 35 59 47 34 23 31 23 12 26 46 30 43 47 50 54 56 57 59 68 69 75 77 87 94 93 90 80 74 68 60 52 49 48 47 48 50 53 56 59 62 64 65 68 71
14 14 14 9 18 27 41 26 13 20 15 11 15 30 38 32 32 40 49 52 56 62 65 73 72 75 78 87 94 94 90 83 75 67 59 52 48 47 47 50 51 52 55 58 61 62 66 69 71
29 40 41 24 34 18 31 54 3 15 15 8 16 24 24 26 32 37 45 51 59 69 73 77 78 78 82 87 94 97 91 82 73 66 59 52 47 47 48 50 51 52 55 57 60 63 65 67 71
Wind_Direction_500mb
162 159 146 239 246 232 231 195 90 162 165 137 184 174 258 334 295 360 171 165 175 180 169 180 190 255 276 254 248 236 234 238 253 269 282 285 285 287 288 286 292 295 294 294 293 293 291 291 293
162 156 206 265 255 251 130 141 187 173 107 157 166 218 252 224 97 142 144 171 180 179 194 187 187 226 249 256 248 252 251 257 261 266 272 277 278 282 288 294 291 291 290 289 290 288 286 287 292
158 170 252 242 266 277 354 170 168 130 145 169 177 224 286 108 163 162 193 180 187 189 202 201 258 289 297 297 293 286 280 277 279 280 276 279 289 295 291 290 292 294 294 295 293 292 293 294 291
125 228 246 249 260 293 304 172 145 150 163 191 210 206 202 194 166 187 181 185 193 199 217 232 238 246 299 290 285 287 291 298 300 298 300 304 304 304 304 300 298 295 292 288 286 286 288 290 291
215 250 255 245 274 285 242 239 170 178 169 185 195 225 212 225 206 204 191 197 200 202 213 219 219 224 247 265 290 296 296 294 294 298 304 304 306 305 302 300 297 296 294 292 289 287 285 282 280
248 271 252 261 287 199 237 194 193 200 187 155 209 246 239 230 214 205 201 205 209 211 212 215 233 245 256 282 294 300 305 308 309 310 310 315 318 323 322 321 320 318 315 303 295 293 293 291 286
256 267 274 291 279 248 222 189 203 214 211 210 233 235 189 226 207 206 201 206 211 212 217 224 229 235 248 260 274 284 288 295 310 322 333 339 339 342 343 343 339 334 331 330 323 316 304 296 290
262 270 277 252 271 266 170 187 223 224 237 193 193 235 237 217 206 206 209 210 214 215 217 223 226 231 242 252 262 264 274 287 306 324 334 338 343 344 340 335 332 332 335 335 334 331 328 322 310
239 256 263 271 258 343 161 209 208 226 227 209 223 243 228 201 211 204 209 213 215 218 222 226 229 231 234 237 240 245 248 256 273 293 308 326 333 335 337 338 338 336 334 335 333 332 332 331 325
236 256 289 330 268 264 198 226 213 217 221 232 236 233 239 211 215 212 213 215 219 220 223 226 226 228 231 234 234 236 237 242 246 256 275 290 308 324 333 336 337 335 333 329 328 329 329 329 329
202 251 352 259 247 252 245 233 220 226 245 232 238 234 234 213 220 219 220 220 224 223 224 225 227 227 229 232 233 232 233 232 237 246 257 277 304 325 334 336 336 334 329 324 322 324 325 326 326
255 246 250 284 239 241 239 261 230 229 239 247 245 244 222 222 223 227 222 218 215 214 223 222 225 225 227 228 228 229 231 235 242 251 268 287 301 317 327 330 329 325 323 322 322 322 322 321 320
247 277 254 244 232 238 253 244 250 256 253 251 253 243 217 229 228 230 224 220 215 216 220 222 223 223 225 225 226 228 230 234 241 249 260 275 291 308 318 322 322 324 326 325 325 324 321 320 318
339 277 268 258 248 241 232 256 242 261 253 244 237 241 229 229 230 224 221 218 215 218 221 222 222 223 225 225 226 229 231 236 243 255 266 277 292 305 314 318 323 325 326 327 327 329 328 327 326
276 282 272 248 246 244 211 250 237 255 248 234 234 238 233 232 226 228 229 222 220 223 219 222 222 221 224 225 227 230 233 238 245 252 263 274 285 300 311 318 320 322 323 326 328 328 328 327 325
259 255 271 233 183 203 190 267 244 247 209 235 245 247 239 234 232 230 226 226 220 219 219 220 221 222 224 226 228 231 235 238 243 246 255 265 281 293 301 309 314 319 324 324 325 326 325 326 325
210 268 271 268 191 160 208 265 287 201 234 257 262 257 245 241 236 230 225 223 217 217 215 220 222 224 225 227 228 231 236 239 243 247 254 263 271 283 297 309 316 320 321 320 320 322 322 322 321
282 287 275 263 193 215 231 249 270 273 265 271 267 265 259 249 241 232 226 219 217 214 216 221 223 223 224 226 227 230 233 236 240 244 251 261 272 284 297 306 313 319 319 319 320 320 321 320 318
275 282 277 272 265 217 243 258 265 272 275 273 272 272 261 256 251 230 224 215 215 212 215 219 220 221 223 224 225 230 234 236 238 241 247 255 265 277 293 305 311 310 314 317 319 319 319 320 320
262 265 267 272 277 207 269 269 268 265 267 272 274 270 269 264 233 221 217 211 215 215 223 222 222 222 225 227 228 230 234 235 235 239 246 254 266 279 289 298 301 306 311 317 315 314 316 318 322
249 251 260 266 282 224 273 275 260 252 257 261 267 265 269 253 232 214 209 211 216 218 224 225 225 226 228 227 227 229 230 234 236 240 245 253 263 272 283 292 300 302 307 310 310 313 314 312 313
263 268 253 268 277 271 92 286 276 289 262 240 269 276 266 238 224 213 207 211 218 222 223 228 228 230 230 228 230 233 237 238 240 240 244 251 261 271 281 288 295 299 300 306 308 309 310 308 306
241 334 262 260 259 278 260 269 275 181 261 242 247 263 273 243 229 208 211 218 218 219 224 228 229 231 230 231 231 232 234 235 235 241 244 252 262 270 279 288 293 294 298 305 306 305 306 303 299
122 243 237 229 258 255 256 244 279 220 209 232 251 252 255 239 210 204 206 208 214 222 224 226 228 233 233 232 232 232 233 234 236 239 244 250 258 269 279 287 289 292 299 304 304 303 303 300 297
203 218 271 254 228 264 271 259 257 257 227 242 261 266 223 218 198 194 201 209 214 220 222 222 225 232 234 232 232 231 232 233 236 239 243 248 256 266 278 283 289 295 300 301 301 302 300 296 292
199 215 221 272 269 283 101 264 265 235 238 241 248 242 222 215 212 207 211 220 223 222 223 223 227 230 234 234 232 231 231 233 235 237 241 249 258 267 274 280 287 294 297 300 300 299 297 294 291
166 204 265 270 206 276 269 267 266 170 198 226 228 229 235 220 220 219 223 232 228 228 227 227 229 230 234 236 233 231 232 232 232 235 241 248 257 266 273 282 288 293 297 300 299 298 297 295 293
238 60 200 197 265 264 281 280 275 242 229 217 236 240 255 229 226 230 237 238 233 231 234 229 232 236 235 237 236 234 232 231 231 234 240 248 257 266 276 283 289 294 296 297 297 298 299 296 294
189 225 221 297 235 252 274 281 90 98 97 160 224 242 251 240 231 241 244 242 240 238 239 233 232 233 233 237 236 233 229 228 228 233 239 245 255 267 276 282 287 290 295 298 298 300 300 296 295
256 236 218 223 233 230 249 273 115 112 113 191 222 247 248 236 256 240 244 244 244 247 242 239 236 234 236 236 233 232 228 225 227 231 238 246 256 266 273 279 283 291 296 300 301 303 300 297 295
Wind_Speed_850mb
9 9 7 4 11 10 8 8 2 13 11 8 8 12 10 8 3 3 12 27 22 13 7 6 6 6 7 7 10 13 17 17 16 16 17 17 18 20 21 23 23 24 25 26 27 27 27 28 29
8 7 3 8 12 15 4 12 15 15 11 17 12 6 8 7 5 7 15 29 23 18 13 8 5 8 10 10 13 15 15 18 19 20 22 23 25 25 25 27 28 27 29 30 30 31 33 34 34
12 9 10 7 10 14 10 10 13 18 18 19 12 10 5 1 7 17 24 28 21 17 14 5 4 4 5 7 11 13 16 20 22 23 27 30 31 29 31 32 33 32 33 34 36 38 38 38 37
2 6 12 12 21 8 8 9 12 21 13 11 6 9 3 16 13 15 29 27 23 16 9 8 7 3 3 5 7 8 11 15 18 18 22 21 23 24 25 28 31 34 37 40 41 42 42 41 41
5 11 14 14 16 6 3 2 16 21 15 16 15 3 4 12 23 20 31 27 22 20 18 14 9 6 7 8 9 10 12 13 15 18 21 23 24 25 26 28 31 32 33 35 42 47 48 46 43
14 10 13 17 5 1 5 11 18 22 16 12 14 16 8 19 26 27 32 31 28 25 22 17 14 13 12 11 11 13 14 14 14 14 15 14 16 18 20 22 25 27 29 33 38 41 44 47 48
16 13 21 17 17 11 12 16 24 23 24 21 6 11 5 22 27 33 35 35 33 31 27 23 22 20 16 13 14 15 13 12 9 9 10 13 17 21 24 28 31 32 33 32 33 34 38 42 46
9 8 18 12 10 12 11 19 9 25 25 18 15 11 18 27 34 37 40 39 39 37 34 32 28 23 18 17 17 14 14 13 11 11 12 14 16 19 22 26 28 32 36 38 39 38 36 36 38
5 10 15 11 11 2 9 20 10 12 20 14 20 20 18 21 33 40 43 43 44 44 41 36 30 26 24 23 20 19 18 14 11 9 10 12 15 19 24 28 30 32 33 33 35 38 39 38 37
12 13 13 3 8 9 12 22 18 13 26 35 33 32 37 33 37 44 49 49 51 50 47 42 37 33 31 28 25 23 20 16 13 12 11 12 13 16 21 25 29 32 33 34 35 33 33 34 35
8 12 8 13 15 12 16 19 22 21 29 34 39 40 43 42 44 48 51 51 51 49 51 49 45 41 38 34 30 26 23 20 18 16 13 12 13 17 22 26 31 34 35 34 34 34 35 35 37
11 25 18 5 9 9 19 14 18 42 49 12 18 28 44 47 53 55 55 53 50 50 54 53 51 47 43 38 34 31 28 24 21 16 14 15 16 18 23 27 30 33 35 36 36 36 36 37 38
19 21 15 20 14 21 18 30 25 42 44 42 33 39 38 46 52 53 52 50 51 54 56 57 56 52 47 42 39 36 31 27 22 19 18 17 17 19 22 26 32 37 39 40 40 40 39 39 39
8 20 28 20 28 23 19 31 10 29 32 48 45 41 42 49 52 50 55 58 60 61 59 58 58 53 49 45 40 37 32 27 24 22 20 18 18 20 23 28 35 41 45 45 46 47 48 48 50
12 18 26 35 30 14 17 20 36 55 29 29 39 45 45 52 50 60 59 63 64 65 61 63 60 56 52 48 44 41 35 31 29 27 23 20 20 22 25 30 36 41 45 48 49 51 54 56 57
12 12 22 3 23 12 18 39 25 26 27 35 42 46 48 55 62 59 59 62 63 63 65 63 62 61 57 52 47 43 39 37 35 29 25 23 22 24 27 31 35 41 46 48 50 52 55 59 63
20 23 31 32 32 9 26 30 16 10 23 41 49 51 55 55 56 58 61 64 64 65 63 68 67 65 59 55 51 47 45 42 37 30 25 25 26 27 29 33 37 41 44 47 48 51 56 61 65
32 35 33 33 18 27 28 42 42 52 50 59 63 63 64 65 60 55 57 61 61 64 65 68 69 66 63 60 55 53 51 46 39 33 30 31 30 30 31 35 39 43 46 48 51 53 55 60 63
43 42 45 48 20 19 38 44 45 55 59 60 68 68 65 63 53 51 58 64 66 65 69 69 71 70 68 66 62 58 54 48 42 39 37 36 36 34 33 36 41 45 46 46 49 52 54 56 61
39 42 51 44 24 13 33 45 41 43 58 67 67 67 51 45 42 46 55 66 72 72 77 75 72 71 72 68 64 59 53 51 47 47 45 43 39 36 35 37 42 46 46 46 47 50 55 55 49
37 41 42 42 30 24 27 37 32 30 40 52 67 63 46 43 40 46 57 67 72 77 78 79 76 75 75 71 67 64 57 53 51 52 50 46 41 37 38 40 43 46 45 45 47 49 50 50 49
39 30 37 39 22 29 3 31 29 29 33 26 55 62 46 35 42 45 58 68 70 71 73 75 76 79 78 76 76 69 63 60 56 55 55 49 43 40 41 41 43 44 45 44 47 50 54 56 55
23 5 10 19 28 34 31 27 31 13 19 24 36 57 40 32 40 49 60 58 57 62 67 72 74 81 83 84 80 76 71 64 59 60 54 49 44 45 44 42 42 47 47 44 49 54 56 57 54
11 6 8 10 12 24 38 36 19 14 13 15 25 42 28 21 31 36 44 49 52 58 65 71 73 80 85 87 84 81 76 72 70 65 59 51 50 47 45 42 45 48 48 49 54 58 61 63 63
17 13 12 18 14 33 27 26 36 18 22 28 42 50 14 21 30 39 45 49 52 58 63 69 68 74 83 89 89 87 82 76 71 65 59 56 52 45 43 45 48 50 51 55 59 62 65 67 69
28 23 12 25 31 48 6 27 23 30 33 43 45 30 23 28 36 41 47 46 50 56 60 62 68 72 80 89 93 88 84 80 74 68 62 57 50 44 46 48 48 50 55 59 63 67 69 68 70
17 15 8 18 2 18 33 50 36 13 22 24 21 23 37 36 42 46 46 49 53 54 58 60 68 74 81 88 91 92 88 81 75 68 61 53 48 46 48 47 48 52 55 61 64 66 67 66 69
11 3 10 10 13 35 59 47 34 23 31 23 12 26 46 30 43 47 50 54 56 57 59 68 69 75 77 87 94 93 90 80 74 68 60 52 49 48 47 48 50 53 56 59 62 64 65 68 71
14 14 14 9 18 27 41 26 13 20 15 11 15 30 38 32 32 40 49 52 56 62 65 73 72 75 78 87 94 94 90 83 75 67 59 52 48 47 47 50 51 52 55 58 61 62 66 69 71
29 40 41 24 34 18 31 54 3 15 15 8 16 24 24 26 32 37 45 51 59 69 73 77 78 78 82 87 94 97 91 82 73 66 59 52 47 47 48 50 51 52 55 57 60 63 65 67 71
Wind_Direction_850mb
162 159 146 239 246 232 231 195 90 162 165 137 184 174 258 334 295 360 171 165 175 180 169 180 190 255 276 254 248 236 234 238 253 269 282 285 285 287 288 286 292 295 294 294 293 293 291 291 293
162 156 206 265 255 251 130 141 187 173 107 157 166 218 252 224 97 142 144 171 180 179 194 187 187 226 249 256 248 252 251 257 261 266 272 277 278 282 288 294 291 291 290 289 290 288 286 287 292
158 170 252 242 266 277 354 170 168 130 145 169 177 224 286 108 163 162 193 180 187 189 202 201 258 289 297 297 293 286 280 277 279 280 276 279 289 295 291 290 292 294 294 295 293 292 293 294 291
125 228 246 249 260 293 304 172 145 150 163 191 210 206 202 194 166 187 181 185 193 199 217 232 238 246 299 290 285 287 291 298 300 298 300 304 304 304 304 300 298 295 292 288 286 286 288 290 291
215 250 255 245 274 285 242 239 170 178 169 185 195 225 212 225 206 204 191 197 200 202 213 219 219 224 247 265 290 296 296 294 294 298 304 304 306 305 302 300 297 296 294 292 289 287 285 282 280
248 271 252 261 287 199 237 194 193 200 187 155 209 246 239 230 214 205 201 205 209 211 212 215 233 245 256 282 294 300 305 308 309 310 310 315 318 323 322 321 320 318 315 303 295 293 293 291 286
256 267 274 291 279 248 222 189 203 214 211 210 233 235 189 226 207 206 201 206 211 212 217 224 229 235 248 260 274 284 288 295 310 322 333 339 339 342 343 343 339 334 331 330 323 316 304 296 290
262 270 277 252 271 266 170 187 223 224 237 193 193 235 237 217 206 206 209 210 214 215 217 223 226 231 242 252 262 264 274 287 306 324 334 338 343 344 340 335 332 332 335 335 334 331 328 322 310
239 256 263 271 258 343 161 209 208 226 227 209 223 243 228 201 211 204 209 213 215 218 222 226 229 231 234 237 240 245 248 256 273 293 308 326 333 335 337 338 338 336 334 335 333 332 332 331 325
236 256 289 330 268 264 198 226 213 217 221 232 236 233 239 211 215 212 213 215 219 220 223 226 226 228 231 234 234 236 237 242 246 256 275 290 308 324 333 336 337 335 333 329 328 329 329 329 329
202 251 352 259 247 252 245 233 220 226 245 232 238 234 234 213 220 219 220 220 224 223 224 225 227 227 229 232 233 232 233 232 237 246 257 277 304 325 334 336 336 334 329 324 322 324 325 326 326
255 246 250 284 239 241 239 261 230 229 239 247 245 244 222 222 223 227 222 218 215 214 223 222 225 225 227 228 228 229 231 235 242 251 268 287 301 317 327 330 329 325 323 322 322 322 322 321 320
247 277 254 244 232 238 253 244 250 256 253 251 253 243 217 229 228 230 224 220 215 216 220 222 223 223 225 225 226 228 230 234 241 249 260 275 291 308 318 322 322 324 326 325 325 324 321 320 318
339 277 268 258 248 241 232 256 242 261 253 244 237 241 229 229 230 224 221 218 215 218 221 222 222 223 225 225 226 229 231 236 243 255 266 277 292 305 314 318 323 325 326 327 327 329 328 327 326
276 282 272 248 246 244 211 250 237 255 248 234 234 238 233 232 226 228 229 222 220 223 219 222 222 221 224 225 227 230 233 238 245 252 263 274 285 300 311 318 320 322 323 326 328 328 328 327 325
259 255 271 233 183 203 190 267 244 247 209 235 245 247 239 234 232 230 226 226 220 219 219 220 221 222 224 226 228 231 235 238 243 246 255 265 281 293 301 309 314 319 324 324 325 326 325 326 325
210 268 271 268 191 160 208 265 287 201 234 257 262 257 245 241 236 230 225 223 217 217 215 220 222 224 225 227 228 231 236 239 243 247 254 263 271 283 297 309 316 320 321 320 320 322 322 322 321
282 287 275 263 193 215 231 249 270 273 265 271 267 265 259 249 241 232 226 219 217 214 216 221 223 223 224 226 227 230 233 236 240 244 251 261 272 284 297 306 313 319 319 319 320 320 321 320 318
275 282 277 272 265 217 243 258 265 272 275 273 272 272 261 256 251 230 224 215 215 212 215 219 220 221 223 224 225 230 234 236 238 241 247 255 265 277 293 305 311 310 314 317 319 319 319 320 320
262 265 267 272 277 207 269 269 268 265 267 272 274 270 269 264 233 221 217 211 215 215 223 222 222 222 225 227 228 230 234 235 235 239 246 254 266 279 289 298 301 306 311 317 315 314 316 318 322
249 251 260 266 282 224 273 275 260 252 257 261 267 265 269 253 232 214 209 211 216 218 224 225 225 226 228 227 227 229 230 234 236 240 245 253 263 272 283 292 300 302 307 310 310 313 314 312 313
263 268 253 268 277 271 92 286 276 289 262 240 269 276 266 238 224 213 207 211 218 222 223 228 228 230 230 228 230 233 237 238 240 240 244 251 261 271 281 288 295 299 300 306 308 309 310 308 306
241 334 262 260 259 278 260 269 275 181 261 242 247 263 273 243 229 208 211 218 218 219 224 228 229 231 230 231 231 232 234 235 235 241 244 252 262 270 279 288 293 294 298 305 306 305 306 303 299
122 243 237 229 258 255 256 244 279 220 209 232 251 252 255 239 210 204 206 208 214 222 224 226 228 233 233 232 232 232 233 234 236 239 244 250 258 269 279 287 289 292 299 304 304 303 303 300 297
203 218 271 254 228 264 271 259 257 257 227 242 261 266 223 218 198 194 201 209 214 220 222 222 225 232 234 232 232 231 232 233 236 239 243 248 256 266 278 283 289 295 300 301 301 302 300 296 292
199 215 221 272 269 283 101 264 265 235 238 241 248 242 222 215 212 207 211 220 223 222 223 223 227 230 234 234 232 231 231 233 235 237 241 249 258 267 274 280 287 294 297 300 300 299 297 294 291
166 204 265 270 206 276 269 267 266 170 198 226 228 229 235 220 220 219 223 232 228 228 227 227 229 230 234 236 233 231 232 232 232 235 241 248 257 266 273 282 288 293 297 300 299 298 297 295 293
238 60 200 197 265 264 281 280 275 242 229 217 236 240 255 229 226 230 237 238 233 231 234 229 232 236 235 237 236 234 232 231 231 234 240 248 257 266 276 283 289 294 296 297 297 298 299 296 294
189 225 221 297 235 252 274 281 90 98 97 160 224 242 251 240 231 241 244 242 240 238 239 233 232 233 233 237 236 233 229 228 228 233 239 245 255 267 276 282 287 290 295 298 298 300 300 296 295
256 236 218 223 233 230 249 273 115 112 113 191 222 247 248 236 256 240 244 244 244 247 242 239 236 234 236 236 233 232 228 225 227 231 238 246 256 266 273 279 283 291 296 300 301 303 300 297 295